| time (UTC) | temp F | wind direction | speed MPH | gust MPH | rain 1hr in | rain 24hr in | rain mn in | humidity % | barometer mb |
| 20260508043048 | 45 | 153 | 0.0 | 0.0 | 0.00 | 0.07 | 0.00 | 95 | 1013.9 |
| 20260508041546 | 46 | 153 | 0.0 | 0.0 | 0.00 | 0.07 | 0.00 | 95 | 1013.6 |
| 20260508040043 | 46 | 153 | 0.0 | 0.0 | 0.00 | 0.07 | 0.00 | 95 | 1013.6 |
| 20260508034542 | 47 | 153 | 0.0 | 0.0 | 0.00 | 0.08 | 0.07 | 95 | 1013.4 |
| 20260508033058 | 47 | 153 | 0.0 | 0.0 | 0.00 | 0.08 | 0.07 | 95 | 1013.4 |
| 20260508031538 | 48 | 153 | 0.0 | 0.0 | 0.00 | 0.08 | 0.07 | 95 | 1013.5 |
| 20260508030035 | 49 | 153 | 0.0 | 0.0 | 0.00 | 0.08 | 0.07 | 95 | 1013.3 |
| 20260508024533 | 49 | 153 | 0.0 | 0.0 | 0.00 | 0.08 | 0.07 | 95 | 1013.0 |
| 20260508023036 | 50 | 153 | 0.0 | 0.0 | 0.00 | 0.08 | 0.07 | 95 | 1012.9 |
| 20260508021527 | 49 | 153 | 0.0 | 0.0 | 0.00 | 0.08 | 0.07 | 95 | 1012.6 |
| 20260508020026 | 50 | 153 | 0.0 | 0.0 | 0.00 | 0.08 | 0.07 | 94 | 1012.3 |
| 20260508014525 | 50 | 153 | 0.0 | 0.0 | 0.00 | 0.08 | 0.07 | 94 | 1012.1 |
| 20260508013022 | 51 | 153 | 0.0 | 0.0 | 0.00 | 0.08 | 0.07 | 93 | 1012.0 |
| 20260508011620 | 51 | 153 | 0.0 | 0.0 | 0.00 | 0.08 | 0.07 | 92 | 1011.7 |
| 20260508010022 | 52 | 153 | 0.0 | 1.0 | 0.00 | 0.08 | 0.07 | 92 | 1011.6 |
| 20260508004518 | 53 | 153 | 0.0 | 2.0 | 0.00 | 0.08 | 0.07 | 92 | 1011.5 |
| 20260508003018 | 53 | 153 | 0.0 | 1.0 | 0.00 | 0.08 | 0.07 | 91 | 1011.7 |
| 20260508001536 | 54 | 153 | 0.0 | 2.0 | 0.00 | 0.08 | 0.07 | 91 | 1011.5 |
| 20260508000017 | 54 | 153 | 0.0 | 2.0 | 0.00 | 0.08 | 0.07 | 90 | 1011.3 |
| 20260507234518 | 55 | 153 | 2.0 | 5.0 | 0.00 | 0.08 | 0.07 | 89 | 1011.1 |
| 20260507233023 | 55 | 150 | 0.0 | 2.0 | 0.00 | 0.08 | 0.07 | 89 | 1010.9 |
| 20260507231516 | 55 | 150 | 2.0 | 5.0 | 0.00 | 0.08 | 0.07 | 88 | 1010.7 |
| 20260507230025 | 55 | 161 | 2.0 | 5.0 | 0.00 | 0.08 | 0.07 | 88 | 1010.8 |
| 20260507224526 | 55 | 173 | 1.0 | 4.0 | 0.00 | 0.08 | 0.07 | 89 | 1010.6 |
| 20260507223015 | 55 | 168 | 1.0 | 7.0 | 0.00 | 0.08 | 0.07 | 89 | 1010.7 |
| 20260507221522 | 55 | 186 | 1.0 | 5.0 | 0.01 | 0.08 | 0.07 | 89 | 1010.6 |
| 20260507220015 | 54 | 173 | 1.0 | 5.0 | 0.01 | 0.08 | 0.07 | 89 | 1010.8 |
| 20260507214513 | 54 | 152 | 1.0 | 5.0 | 0.01 | 0.08 | 0.07 | 89 | 1010.8 |
| 20260507213015 | 54 | 152 | 0.0 | 5.0 | 0.01 | 0.08 | 0.07 | 89 | 1010.7 |
| 20260507211527 | 54 | 153 | 2.0 | 6.0 | 0.00 | 0.07 | 0.06 | 89 | 1010.5 |
| 20260507210014 | 54 | 142 | 1.0 | 5.0 | 0.00 | 0.07 | 0.06 | 92 | 1010.2 |
| 20260507204511 | 53 | 147 | 5.0 | 9.0 | 0.00 | 0.07 | 0.06 | 93 | 1010.2 |
| 20260507203010 | 52 | 141 | 4.0 | 8.0 | 0.00 | 0.07 | 0.06 | 94 | 1010.2 |
| 20260507201516 | 52 | 170 | 2.0 | 4.0 | 0.00 | 0.07 | 0.06 | 94 | 1011.1 |
| 20260507200009 | 52 | 109 | 2.0 | 7.0 | 0.00 | 0.07 | 0.06 | 94 | 1010.9 |
| 20260507194509 | 51 | 92 | 4.0 | 8.0 | 0.01 | 0.07 | 0.06 | 93 | 1010.8 |
| 20260507193008 | 52 | 79 | 3.0 | 10.0 | 0.01 | 0.07 | 0.06 | 92 | 1011.2 |
| 20260507191507 | 52 | 85 | 1.0 | 3.0 | 0.01 | 0.07 | 0.06 | 92 | 1011.2 |
| 20260507190006 | 52 | 85 | 1.0 | 3.0 | 0.01 | 0.07 | 0.06 | 92 | 1011.3 |
| 20260507184505 | 52 | 90 | 1.0 | 3.0 | 0.00 | 0.06 | 0.05 | 92 | 1011.1 |
| 20260507183005 | 52 | 78 | 0.0 | 11.0 | 0.00 | 0.06 | 0.05 | 91 | 1011.6 |
| 20260507181504 | 52 | 84 | 1.0 | 8.0 | 0.00 | 0.06 | 0.05 | 90 | 1011.7 |
| 20260507180004 | 52 | 101 | 4.0 | 12.0 | 0.00 | 0.06 | 0.05 | 89 | 1011.5 |
| 20260507174507 | 52 | 36 | 3.0 | 10.0 | 0.00 | 0.08 | 0.05 | 89 | 1011.2 |
| 20260507173002 | 52 | 88 | 4.0 | 15.0 | 0.00 | 0.08 | 0.05 | 90 | 1011.2 |
| 20260507171604 | 52 | 81 | 6.0 | 17.0 | 0.00 | 0.08 | 0.05 | 90 | 1011.2 |
| 20260507170058 | 51 | 43 | 9.0 | 12.0 | 0.00 | 0.08 | 0.05 | 90 | 1011.6 |
| 20260507164555 | 52 | 121 | 3.0 | 8.0 | 0.00 | 0.08 | 0.05 | 92 | 1011.7 |
| 20260507163056 | 52 | 79 | 5.0 | 9.0 | 0.00 | 0.08 | 0.05 | 93 | 1011.7 |
| 20260507161555 | 52 | 100 | 3.0 | 8.0 | 0.00 | 0.08 | 0.05 | 94 | 1011.7 |
| 20260507160052 | 52 | 151 | 3.0 | 9.0 | 0.00 | 0.08 | 0.05 | 93 | 1012.0 |
| 20260507154549 | 52 | 74 | 2.0 | 12.0 | 0.00 | 0.09 | 0.05 | 93 | 1012.0 |
| 20260507153101 | 52 | 53 | 4.0 | 8.0 | 0.00 | 0.09 | 0.05 | 93 | 1011.8 |
| 20260507151545 | 52 | 86 | 3.0 | 9.0 | 0.01 | 0.09 | 0.05 | 93 | 1011.7 |
| 20260507150045 | 52 | 81 | 6.0 | 11.0 | 0.01 | 0.09 | 0.05 | 92 | 1011.6 |
| 20260507144545 | 53 | 55 | 5.0 | 11.0 | 0.01 | 0.14 | 0.05 | 93 | 1011.5 |
| 20260507143053 | 53 | 17 | 5.0 | 10.0 | 0.01 | 0.14 | 0.05 | 93 | 1011.6 |
| 20260507141540 | 53 | 42 | 4.0 | 12.0 | 0.00 | 0.13 | 0.04 | 93 | 1011.5 |
| 20260507140039 | 53 | 62 | 3.0 | 17.0 | 0.01 | 0.13 | 0.04 | 93 | 1011.5 |
| 20260507134535 | 54 | 55 | 9.0 | 15.0 | 0.01 | 0.13 | 0.04 | 93 | 1011.6 |
| 20260507133033 | 54 | 66 | 6.0 | 11.0 | 0.01 | 0.13 | 0.04 | 93 | 1012.2 |
| 20260507131538 | 55 | 58 | 6.0 | 14.0 | 0.01 | 0.13 | 0.04 | 93 | 1011.9 |
| 20260507130023 | 57 | 45 | 3.0 | 9.0 | 0.00 | 0.12 | 0.03 | 95 | 1011.6 |
| 20260507124521 | 58 | 76 | 2.0 | 12.0 | 0.00 | 0.13 | 0.03 | 95 | 1011.6 |
| 20260507123022 | 59 | 84 | 4.0 | 13.0 | 0.00 | 0.13 | 0.03 | 94 | 1010.8 |
| 20260507121514 | 61 | 72 | 3.0 | 11.0 | 0.00 | 0.13 | 0.03 | 95 | 1010.6 |
| 20260507120011 | 61 | 73 | 4.0 | 8.0 | 0.00 | 0.13 | 0.03 | 96 | 1010.8 |
| 20260507114509 | 61 | 65 | 2.0 | 4.0 | 0.00 | 0.13 | 0.03 | 97 | 1010.8 |
| 20260507113008 | 61 | 42 | 1.0 | 2.0 | 0.00 | 0.13 | 0.03 | 97 | 1010.4 |
| 20260507111509 | 61 | 40 | 0.0 | 0.0 | 0.00 | 0.13 | 0.03 | 97 | 1010.9 |
| 20260507110006 | 61 | 40 | 0.0 | 2.0 | 0.00 | 0.13 | 0.03 | 97 | 1010.5 |
| 20260507104505 | 61 | 40 | 0.0 | 3.0 | 0.00 | 0.13 | 0.03 | 97 | 1010.3 |
| 20260507103003 | 61 | 40 | 1.0 | 3.0 | 0.00 | 0.13 | 0.03 | 97 | 1010.0 |
| 20260507101502 | 61 | 42 | 1.0 | 3.0 | 0.00 | 0.13 | 0.03 | 97 | 1009.8 |
| 20260507100002 | 61 | 42 | 0.0 | 2.0 | 0.00 | 0.13 | 0.03 | 97 | 1009.9 |
| 20260507094501 | 61 | 137 | 1.0 | 4.0 | 0.00 | 0.13 | 0.03 | 97 | 1009.8 |
| 20260507093003 | 61 | 350 | 0.0 | 1.0 | 0.00 | 0.13 | 0.03 | 97 | 1009.4 |
| 20260507091559 | 61 | 350 | 1.0 | 3.0 | 0.00 | 0.13 | 0.03 | 96 | 1009.8 |
| 20260507084606 | 62 | 349 | 1.0 | 5.0 | 0.00 | 0.13 | 0.03 | 96 | 1010.1 |
| 20260507083059 | 62 | 336 | 4.0 | 9.0 | 0.00 | 0.13 | 0.03 | 96 | 1010.1 |
| 20260507081559 | 62 | 232 | 1.0 | 5.0 | 0.00 | 0.13 | 0.03 | 96 | 1010.0 |
| 20260507080057 | 62 | 13 | 0.0 | 2.0 | 0.00 | 0.13 | 0.03 | 96 | 1010.1 |
| 20260507074603 | 62 | 14 | 0.0 | 1.0 | 0.00 | 0.13 | 0.03 | 96 | 1010.5 |
| 20260507073055 | 62 | 14 | 0.0 | 2.0 | 0.00 | 0.13 | 0.03 | 96 | 1009.6 |
| 20260507071604 | 61 | 11 | 1.0 | 5.0 | 0.00 | 0.13 | 0.03 | 96 | 1009.7 |
| 20260507070105 | 62 | 238 | 2.0 | 4.0 | 0.00 | 0.13 | 0.03 | 95 | 1009.7 |
| 20260507064557 | 62 | 178 | 0.0 | 3.0 | 0.01 | 0.13 | 0.03 | 95 | 1009.6 |
| 20260507063051 | 62 | 178 | 0.0 | 3.0 | 0.01 | 0.13 | 0.03 | 94 | 1009.6 |
| 20260507061551 | 62 | 169 | 0.0 | 5.0 | 0.01 | 0.13 | 0.03 | 94 | 1009.9 |
| 20260507060049 | 62 | 182 | 2.0 | 7.0 | 0.01 | 0.13 | 0.03 | 94 | 1009.9 |
| 20260507054607 | 62 | 154 | 2.0 | 6.0 | 0.01 | 0.12 | 0.02 | 93 | 1010.3 |
| 20260507053056 | 62 | 201 | 5.0 | 10.0 | 0.01 | 0.12 | 0.02 | 93 | 1010.9 |
| 20260507051550 | 63 | 173 | 1.0 | 3.0 | 0.01 | 0.12 | 0.02 | 93 | 1010.5 |
| 20260507050049 | 63 | 168 | 1.0 | 5.0 | 0.02 | 0.12 | 0.02 | 93 | 1010.4 |
| 20260507044551 | 63 | 174 | 2.0 | 6.0 | 0.01 | 0.11 | 0.01 | 93 | 1010.3 |